Tracking 30918 objects as of 3-Jul-2025
HD Live streaming from Space Station
objects crossing your sky now

CHOLLIMA-1 R/B

Track CHOLLIMA-1 R/B now!
10-day predictions


NORAD ID: 58401
Int'l Code: 2023-179B
Perigee: 425.1 km
Apogee: 455.8 km
Inclination: 97.3 °
Period: 93.2 minutes
Semi major axis: 6811 km
RCS: Unknown
Launch date: November 21, 2023
Source: North Korea (NKOR)
Launch site: Yunsong, DPRK (YUN)

Note: This is a ROCKET BODY
Your satellite tracking list
Your tracking list is empty




NASA's NSSDC Master Catalog

Two Line Element Set (TLE):
1 58401U 23179B   25183.46001386  .00010444  00000-0  22628-3 0  9993
2 58401  97.3425  78.3817 0022575   3.1748 356.9640 15.44347962 90230
Source of the keplerian elements: AFSPC